Погода в Асака

Узбекистан     40°38′32″N   72°14′48″E
темп.,
°C
ветер,
м/с
пор.,
м/с
влажн.,
%
обл.,
%
осадки,
мм/ч
давл.,
гПа
погр.,
м
1 марта, пн
пн123:00+4в23460 0.0 1027106
02:00+3всв22515 0.0 102665
05:00+2в12496 0.0 102629
08:00+3в244192 0.0 1026150
11:00+8св232574 0.0 1023488
14:00+13с12180 0.0 1022788
17:00+12з11180 0.0 1022554
20:00+10вюв00230 0.0 102622
2 марта, вт
вт223:00+7в23380 0.0 102852
02:00+6всв23470 0.0 102866
05:00+5в234033 0.0 102878
08:00+5всв233688 0.0 1028114
11:00+10св122494 0.0 1025419
14:00+13ссв0119100 0.0 1022539
17:00+13ссз1119100 0.0 1022377
20:00+11с1124100 0.0 102422
3 марта, ср
ср323:00+10всв1135100 0.0 102425
02:00+9ююв1138100 0.0 102422
05:00+8ююв0138100 0.0 102522
08:00+8в1140100 0.0 102571
11:00+11св2335100 0.0 1023692
14:00+12ссв3340100 0.0 10211397
17:00+11св344596 0.0 1022751
20:00+10св2456100 0.0 1024297
4 марта, чт
чт423:00+9ссз236499 0.0 1025177
02:00+7св246845 0.0 1024180
05:00+7в117366 0.0 102536
08:00+7в006990 0.0 102564
11:00+11ссз125086 0.0 1021607
14:00+14з0139100 0.0 1019815
17:00+14зюз1138100 0.0 1019394
20:00+13з3741100 0.0 1022382
5 марта, пт
пт523:00+11ю4755100 0.0 1024648
02:00+10всв3460100 0.0 1023118
05:00+9св4768100 0.1 1022303
08:00+8зюз3678100 1.3 1024575
11:00+10з4849100 4.1 10241248
14:00+12юз1337100 0.0 10231743
17:00+11в465887 0.0 1024573
20:00+9всв37640 0.0 1027254